User: anonymous
Location: Unspecified
(0.0000°N, 0.0000°E)
Time: 11:37:21
(UTC+02:00)
Language:

Timation 2 Rocket - Orbit

View from above orbital plane
View from above orbital plane
View from above satellite
View from above satellite

Ground track
Ground track

The orbit data is extracted from the following two-line orbital elements,

1 04159U 69082AB  14110.26836342  .00000088  00000-0  14435-3 0  5627
2 04159 069.9649 011.7133 0113113 085.5342 275.8663 13.72225780229778
Epoch (UTC): 20 April 2014 06:26:26
Eccentricity: 0.0113113
inclination: 69.9649°
perigee height: 908 km
apogee height: 1075 km
right ascension of ascending node: 11.7133°
argument of perigee: 85.5342°
revolutions per day: 13.72225780
mean anomaly at epoch: 275.8663°
orbit number at epoch: 22977

The dashed part of the orbit path shows where the satellite is in the earth's shadow,  

DLR